TimeIST,TemperatureF,Dew PointF,Humidity,Sea Level PressureIn,VisibilityMPH,Wind Direction,Wind SpeedMPH,Gust SpeedMPH,PrecipitationIn,Events,Conditions,WindDirDegrees,DateUTC
12:00 AM,44.6,42.8,93,29.80,6.2,West,9.2,-,N/A,,Partly Cloudy,260,2012-10-05 23:00:00
12:30 AM,42.8,41.0,93,29.80,6.2,West,8.1,-,N/A,,Partly Cloudy,270,2012-10-05 23:30:00
1:00 AM,42,41,97,29.83,25,West,8.9,,,,Scattered Clouds,280,2012-10-06 00:00:00
1:00 AM,42.8,41.0,93,29.80,6.2,West,8.1,-,N/A,,Partly Cloudy,280,2012-10-06 00:00:00
1:30 AM,42.8,41.0,93,29.80,6.2,West,9.2,-,N/A,,Partly Cloudy,270,2012-10-06 00:30:00
2:00 AM,42.8,41.0,93,29.80,6.2,West,8.1,-,N/A,,Partly Cloudy,280,2012-10-06 01:00:00
3:00 AM,41.0,41.0,100,29.83,6.2,West,8.1,-,N/A,,Partly Cloudy,270,2012-10-06 02:00:00
3:30 AM,41.0,41.0,100,29.83,-9999.0,West,6.9,-,N/A,,Clear,260,2012-10-06 02:30:00
4:00 AM,41.0,41.0,100,29.83,-9999.0,West,8.1,-,N/A,,Clear,270,2012-10-06 03:00:00
4:30 AM,41.0,39.2,93,29.83,-9999.0,West,10.4,-,N/A,,Clear,270,2012-10-06 03:30:00
5:00 AM,39.2,39.2,100,29.83,-9999.0,West,10.4,-,N/A,,Clear,270,2012-10-06 04:00:00
5:30 AM,39.2,39.2,100,29.86,-9999.0,West,10.4,-,N/A,,Clear,270,2012-10-06 04:30:00
6:00 AM,39.2,39.2,100,29.86,-9999.0,West,10.4,-,N/A,,Clear,270,2012-10-06 05:00:00
6:30 AM,39.2,39.2,100,29.86,-9999.0,West,11.5,-,N/A,,Clear,280,2012-10-06 05:30:00
7:00 AM,39,38,97,29.90,19,West,11.2,,,,Scattered Clouds,280,2012-10-06 06:00:00
7:00 AM,39.2,39.2,100,29.86,6.2,West,11.5,-,N/A,,Partly Cloudy,280,2012-10-06 06:00:00
7:30 AM,39.2,37.4,93,29.89,6.2,West,8.1,-,N/A,,Partly Cloudy,280,2012-10-06 06:30:00
8:00 AM,39.2,39.2,100,29.89,6.2,West,11.5,-,N/A,,Partly Cloudy,280,2012-10-06 07:00:00
8:30 AM,39.2,39.2,100,29.92,6.2,West,11.5,-,N/A,,Partly Cloudy,270,2012-10-06 07:30:00
9:00 AM,41.0,39.2,93,29.92,6.2,West,11.5,-,N/A,,Partly Cloudy,270,2012-10-06 08:00:00
9:30 AM,41.0,41.0,100,29.92,6.2,West,10.4,-,N/A,,Partly Cloudy,260,2012-10-06 08:30:00
10:00 AM,42.8,42.8,100,29.92,6.2,West,13.8,-,N/A,,Scattered Clouds,270,2012-10-06 09:00:00
10:30 AM,44.6,42.8,93,29.95,3.1,West,12.7,-,N/A,,Mostly Cloudy,280,2012-10-06 09:30:00
11:00 AM,46.4,44.6,93,29.95,3.7,West,12.7,-,N/A,,Scattered Clouds,270,2012-10-06 10:00:00
11:30 AM,46.4,44.6,93,29.95,3.7,West,12.7,-,N/A,,Scattered Clouds,270,2012-10-06 10:30:00
12:00 PM,48.2,46.4,93,29.95,4.3,West,12.7,-,N/A,,Partly Cloudy,270,2012-10-06 11:00:00
12:30 PM,51.8,48.2,88,29.95,6.2,West,8.1,-,N/A,,Partly Cloudy,280,2012-10-06 11:30:00
1:00 PM,53,48,78,29.98,12,West,11.2,,,,Scattered Clouds,270,2012-10-06 12:00:00
1:00 PM,53.6,48.2,82,29.98,6.2,West,10.4,-,N/A,,Partly Cloudy,270,2012-10-06 12:00:00
1:30 PM,55.4,46.4,72,29.98,6.2,West,9.2,-,N/A,,Partly Cloudy,280,2012-10-06 12:30:00
2:00 PM,55.4,46.4,72,29.98,6.2,NW,10.4,-,N/A,,Scattered Clouds,310,2012-10-06 13:00:00
2:30 PM,55.4,46.4,72,29.98,6.2,NW,10.4,-,N/A,,Scattered Clouds,320,2012-10-06 13:30:00
3:00 PM,55.4,46.4,72,29.98,6.2,NNW,10.4,-,N/A,,Scattered Clouds,330,2012-10-06 14:00:00
3:30 PM,57.2,46.4,67,29.98,6.2,NNW,8.1,-,N/A,,Scattered Clouds,330,2012-10-06 14:30:00
4:00 PM,53.6,46.4,77,29.98,6.2,NW,10.4,-,N/A,,Scattered Clouds,310,2012-10-06 15:00:00
4:30 PM,55.4,46.4,72,29.98,6.2,WNW,8.1,-,N/A,,Mostly Cloudy,300,2012-10-06 15:30:00
5:00 PM,53.6,46.4,77,29.98,6.2,NW,5.8,-,N/A,,Mostly Cloudy,310,2012-10-06 16:00:00
5:30 PM,53.6,44.6,72,30.01,6.2,NW,4.6,-,N/A,,Mostly Cloudy,320,2012-10-06 16:30:00
6:00 PM,53.6,46.4,77,30.01,6.2,NW,4.6,-,N/A,,Mostly Cloudy,310,2012-10-06 17:00:00
6:30 PM,51.8,46.4,82,30.01,6.2,WNW,4.6,-,N/A,,Mostly Cloudy,300,2012-10-06 17:30:00
7:00 PM,51,46,77,30.05,25,WNW,6.7,,,,Mostly Cloudy,290,2012-10-06 18:00:00
7:00 PM,51.8,46.4,82,30.04,6.2,WNW,5.8,-,N/A,,Mostly Cloudy,290,2012-10-06 18:00:00
7:30 PM,50.0,44.6,82,30.04,6.2,WNW,5.8,-,N/A,,Mostly Cloudy,290,2012-10-06 18:30:00
8:00 PM,50.0,46.4,87,30.04,6.2,West,4.6,-,N/A,,Mostly Cloudy,280,2012-10-06 19:00:00
8:30 PM,50.0,46.4,87,30.06,6.2,WNW,6.9,-,N/A,,Mostly Cloudy,300,2012-10-06 19:30:00
9:00 PM,50.0,46.4,87,30.06,6.2,NW,5.8,-,N/A,,Mostly Cloudy,320,2012-10-06 20:00:00
9:30 PM,48.2,46.4,93,30.06,6.2,NNW,5.8,-,N/A,,Mostly Cloudy,330,2012-10-06 20:30:00
10:00 PM,48.2,46.4,93,30.09,6.2,NNW,6.9,-,N/A,,Mostly Cloudy,330,2012-10-06 21:00:00
10:30 PM,48.2,46.4,93,30.09,6.2,North,5.8,-,N/A,,Mostly Cloudy,350,2012-10-06 21:30:00
11:00 PM,46.4,44.6,93,30.09,6.2,North,5.8,-,N/A,,Mostly Cloudy,350,2012-10-06 22:00:00
11:30 PM,44.6,42.8,93,30.09,6.2,North,4.6,-,N/A,,Mostly Cloudy,350,2012-10-06 22:30:00